Location: Fitzgerrell (historical)
(38.1381°N, 89.0142°W)
Time: 01:58:18
(UTC+00:00)

Daily predictions for brighter satellites

Satellite Brightness Start Highest point End
(mag) Time Altitude Azimuth Time Altitude Azimuth Time Altitude Azimuth
Resurs 1-3 4.4 01:35:03 10° SE 01:39:00 34° ENE 01:42:58 10° N
Cosmos 2298 Rocket 4.2 01:35:38 10° N 01:40:55 61° ENE 01:46:10 10° SSE
Cosmos 1758 Rocket 3.7 01:36:41 10° S 01:40:58 77° W 01:45:18 10° N
Cosmos 1125 Rocket 3.9 01:37:14 10° N 01:42:23 48° ENE 01:47:29 10° SE
NOSS 3-2 (A) 4.3 01:35:28 10° NW 01:43:19 83° WSW 01:52:03 10° SSE
deb Kosmos-1763 3.9 01:40:47 10° S 01:44:15 73° ESE 01:47:46 10° NNE
Cosmos 1869 3.3 01:48:05 10° N 01:51:56 60° E 01:55:43 10° SSE
COSMOS 2406 3.4 01:48:15 10° S 01:53:39 48° ESE 01:59:06 10° NE
Cosmos 2058 3.7 01:50:37 10° SSE 01:54:17 31° E 01:57:59 10° NNE
Cosmos 1825 2.4 01:51:59 10° SSE 01:55:34 47° E 01:59:12 10° NNE
Meteor 1-27 4.4 01:50:30 10° N 01:56:16 85° W 02:02:05 10° S
NOSS 3-4 (A) 3.4 01:50:51 10° SSW 01:56:38 85° WNW 02:02:45 10° NNE
NOSS 3-4 (C) 3.4 01:50:58 10° SSW 01:56:43 86° WNW 02:02:51 10° NNE
USA 306 3.0 01:52:41 10° NW 01:56:57 70° NE 02:00:51 12° SE
SAR-Lupe-1 4.3 01:54:14 10° N 01:57:49 76° WNW 02:01:22 10° SSW
SAR-Lupe-4 3.6 01:54:38 10° NNE 01:58:15 87° WNW 02:01:49 10° SSW
OBJECT-B 1.6 01:57:09 10° S 02:00:14 50° W 02:03:22 10° NNW
SL-19 R/B 4.3 01:58:25 10° S 02:01:33 63° WSW 02:05:07 10° NNW
Cosmos 405 Rocket 3.5 01:58:31 10° SSW 02:02:17 55° W 02:06:11 10° N
SJ-6B 3.1 01:59:12 10° S 02:02:54 64° W 02:06:37 10° NNW
Atlas Centaur 2 3.1 02:02:10 10° S 02:03:44 12° SSE 02:04:35 11° SSE
USA 32 4.0 01:59:45 10° N 02:04:59 71° E 02:10:12 10° S
ATLAS 2AS CENTAUR R/B 3.1 01:57:37 10° SSW 02:05:20 62° ESE 02:13:02 10° NE
Cosmos 1656 3.7 02:00:45 10° NNW 02:06:23 66° ENE 02:11:34 12° SSE
Centaur D-1AR AC-39 3.8 02:05:36 10° SSW 02:06:52 11° SSW 02:07:57 10° S
Cosmos 1980 Rocket 3.9 02:04:22 10° N 02:08:16 19° NE 02:12:06 10° E
Cosmos 1437 Rocket 2.6 02:06:21 10° N 02:10:10 75° E 02:14:04 10° SSE
NOSS 3-2 (C) 4.2 02:02:31 10° NNW 02:10:23 89° WSW 02:18:50 11° SSE
Resurs 01 Rocket 2.1 02:08:50 13° SE 02:12:33 44° ENE 02:16:47 10° N
Cosmos 1408 3.9 02:12:54 10° SSW 02:16:22 41° W 02:19:50 10° N
Cosmos 1437 3.0 02:15:27 10° N 02:18:02 35° ENE 02:19:12 23° SE
NOSS 2 (A) 4.1 02:17:21 10° NNW 02:19:51 59° NE 02:20:51 29° SE
RESURS DK-1 3.1 02:18:06 10° SSE 02:21:44 30° ESE 02:25:24 10° NE
Cosmos-2242 4.3 02:17:53 10° NNW 02:21:53 40° W 02:25:50 10° SSW
Cosmos 2098 Rocket 3.6 02:22:42 19° E 02:22:51 19° E 02:25:04 10° NE
ATLAS 3B R/B 4.2 02:21:26 10° NNW 02:27:11 26° NE 02:32:46 11° E
USA 267 3.7 02:22:37 10° ENE 02:28:37 37° SE 02:34:34 10° SSW
CENTAUR R/B 3.7 02:20:55 10° NW 02:29:13 62° WSW 02:37:50 11° SSE
Cosmos 1633 3.3 02:29:09 24° SE 02:30:30 33° E 02:33:46 10° NNE
SPOT 1/Viking Rocket 4.1 02:28:26 19° SE 02:31:42 43° ENE 02:36:36 10° N
MetOp-B 4.4 02:28:47 19° SE 02:32:28 51° ENE 02:37:39 10° N
Cosmos 44 Rocket 3.4 02:29:32 10° SSW 02:34:41 85° ESE 02:39:57 10° NNE
Meteor 2-2 Rocket 4.2 02:29:38 10° N 02:35:29 79° E 02:40:10 16° SSE
ARIANE 5 R/B 4.0 02:38:33 20° E 02:40:07 24° ENE 02:43:45 10° NNE
ERS-2 3.4 02:37:10 10° N 02:40:38 41° WNW 02:44:03 10° SW
Ariane Rocket 3.6 02:37:47 10° S 02:42:46 56° W 02:47:45 10° NNW
SPOT 5 4.1 02:44:08 19° E 02:45:16 21° ENE 02:48:31 10° NNE
ATLAS 2A CENTAUR R/B 4.4 02:31:07 10° WSW 02:46:34 34° SSW 02:49:13 24° SSE
Cosmos 2180 Rocket 4.4 02:40:25 10° N 02:46:36 79° E 02:51:12 19° SSE
SEDSat Delta rocket 3.7 02:46:03 10° SW 02:49:36 29° S 02:49:48 29° SSE
CZ-2C R/B 3.6 02:45:55 10° NNE 02:50:28 70° ESE 02:53:38 19° S
OAO 2 Rocket 3.5 02:46:32 10° W 02:51:25 54° S 02:53:27 32° SE
Cosmos 1242 Rocket 3.4 02:48:04 10° NNW 02:51:31 46° W 02:53:50 18° SSW
CARTOSAT-1 4.2 02:51:42 30° ESE 02:53:00 38° ENE 02:57:01 10° N
Cosmos 2221 2.4 02:49:35 10° N 02:53:53 88° W 02:56:12 27° S
USA 307 3.9 02:52:00 10° WNW 02:55:57 37° SW 02:57:40 26° S
Cosmos 371 Rocket 4.2 02:59:34 10° N 03:03:56 33° ENE 03:05:07 29° E
ERBS 3.6 03:02:29 10° NNW 03:05:19 27° NE 03:05:39 27° NE
Terra 3.0 03:04:43 25° E 03:05:39 26° ENE 03:09:36 10° NNE
Cosmos 1697 Rocket 2.7 03:00:55 10° NNW 03:06:36 78° WSW 03:09:29 30° SSE
GRACE-FO 1 4.4 03:03:33 10° N 03:07:10 75° E 03:07:43 60° SSE
GRACE-FO 2 4.4 03:04:00 10° N 03:07:37 76° E 03:08:10 60° SSE
Hubble Space Telescope 2.6 03:05:36 10° SW 03:07:15 17° SSW 03:07:15 17° SSW
Cosmos 1606 2.7 03:06:29 10° N 03:10:15 77° W 03:11:14 47° S
Cosmos 2082 Rocket 2.4 03:04:56 10° SSW 03:10:31 72° WNW 03:16:10 10° NNE
USA 305 4.5 03:09:10 10° WNW 03:12:31 23° SW 03:13:42 21° SSW
USA 308 4.4 03:09:10 10° WNW 03:12:42 26° SW 03:13:51 23° SSW
SPOT 3 Rocket 4.0 03:09:28 21° S 03:12:48 56° W 03:17:57 10° NNW
Cosmos 1833 Rocket 4.5 03:09:25 10° WSW 03:14:26 32° WNW 03:19:29 10° N
Cosmos 2278 4.1 03:09:03 10° NNW 03:14:33 50° ENE 03:16:22 36° ESE
Meteor 2-15 4.5 03:09:24 10° N 03:15:26 63° E 03:17:44 38° SE
BREEZE-M R/B 3.4 03:11:23 10° SSW 03:17:24 39° SSE 03:17:24 39° SSE
Cosmos 2195 Rocket 4.5 03:16:45 35° SSE 03:19:15 60° E 03:25:16 10° NNE
Cosmos 1782 4.3 03:20:28 10° NNE 03:23:15 24° ENE 03:23:15 24° ENE
Cosmos 2151 2.8 03:23:49 57° S 03:24:40 88° E 03:28:55 10° N
Meteor 2-15 Rocket 4.4 03:25:12 10° N 03:31:16 66° E 03:32:59 46° SE
Centaur D AC-29 4.2 03:25:38 10° W 03:31:46 14° WSW 03:35:11 10° SSW
Cosmos 1092 Rocket 3.9 03:29:20 34° S 03:32:13 82° E 03:38:31 10° N
GP-B 2.9 03:30:05 10° N 03:34:33 77° E 03:34:52 72° SE
Meteor 2-3 Rocket 3.6 03:36:27 43° S 03:38:25 86° E 03:44:08 10° N
Cosmos 332 Rocket 4.3 03:34:40 10° N 03:39:20 44° ENE 03:39:38 43° ENE
Cosmos 1680 Rocket 4.2 03:40:32 37° E 03:40:32 37° E 03:44:40 10° NE
Cosmos 2369 4.1 03:36:03 10° NNW 03:41:33 55° WSW 03:43:19 39° SSW
ERS-1 Rocket 2.8 03:40:52 61° SSE 03:41:46 89° ENE 03:46:49 10° NNW
Spot 2 Rocket 3.8 03:41:46 43° SSW 03:43:14 60° W 03:48:18 10° NNW
Cosmos 1151 Rocket 4.0 03:41:19 10° N 03:44:42 35° ENE 03:44:42 35° ENE
Resurs 01 Rocket 4.2 03:46:41 10° SW 03:49:14 15° W 03:51:48 10° WNW
Okean 3 Rocket 4.2 03:50:13 44° NE 03:50:13 44° NE 03:53:43 10° NNE
OAO 1 Rocket 4.4 03:45:11 10° W 03:50:12 62° SSW 03:50:12 62° SSW
Cosmos 2026 Rocket 4.0 03:49:08 43° S 03:51:28 88° W 03:57:49 10° N
BREEZE-M DEB (TANK) 3.5 03:48:07 10° NW 03:51:55 63° NE 03:55:45 32° ESE
BREEZE M DEB (TANK) 3.6 03:48:54 10° WSW 03:52:17 82° NNW 04:11:30 10° ENE
Cosmos 1980 Rocket 2.4 03:47:09 10° NNW 03:52:42 62° WSW 03:53:52 50° SSW
Cosmos 158 Rocket 4.4 03:58:13 34° SW 04:00:14 57° WNW 04:05:23 10° N
Cosmos 2322 Rocket 3.3 03:55:20 10° N 04:00:18 31° ENE 04:00:59 30° ENE
H-2A R/B 4.0 03:56:40 10° NNE 03:59:53 51° NNE 03:59:53 51° NNE
Cosmos 1271 Rocket 3.4 04:00:02 10° N 04:03:10 54° NNW 04:03:10 54° NNW
ISS -1.2 04:08:34 10° NNW 04:10:34 19° N 04:10:34 19° N
USA 267 3.8 04:05:20 10° NE 04:11:44 59° NW 04:18:07 10° WSW
ARIANE 5 R/B 4.1 04:16:06 28° WSW 04:16:25 29° W 04:20:19 10° NW
Meteor 2-21 4.3 04:16:06 72° SSE 04:16:43 81° E 04:22:54 10° N
Cosmos 2292 Rocket 4.1 04:16:19 73° SSW 04:16:53 83° W 04:23:43 10° N
ATLAS 3B R/B 2.8 04:11:24 10° NW 04:18:35 77° WSW 04:20:00 60° S
SPOT 5 4.0 04:23:22 30° W 04:23:22 30° W 04:26:59 10° NW
SL-16 R/B 2.3 04:19:56 10° NNW 04:25:32 66° ENE 04:25:32 66° ENE
Cosmos 304 Rocket 4.2 04:22:45 10° NNW 04:26:50 57° WNW 04:26:50 57° WNW
Cosmos 2219 Rocket 4.5 04:25:29 10° NNE 04:27:52 13° NE 04:29:34 11° ENE
Cosmos 1655 Rocket 4.0 04:32:56 68° E 04:32:56 68° E 04:39:16 10° NNE
Cosmos 1553 Rocket 3.8 04:27:04 10° N 04:33:10 85° W 04:33:26 81° SSW
Cosmos 2266 Rocket 4.0 04:37:31 63° ENE 04:37:31 63° ENE 04:43:14 10° NNE
Meteor 1-10 Rocket 4.4 04:34:06 10° N 04:39:04 60° NE 04:39:04 60° NE
COSMOS 2455 4.4 04:44:29 23° ENE 04:44:29 23° ENE 04:47:14 10° NE
USA 234 3.8 04:41:00 40° E 04:42:57 52° NE 04:49:17 10° NW
Terra 3.3 04:43:36 29° W 04:43:36 29° W 04:47:26 10° NW
Meteor 2-16 Rocket 4.3 04:50:10 85° NNW 04:50:10 85° NNW 04:56:08 10° N
ALOS 2 4.3 04:56:16 27° NNE 04:56:16 27° NNE 04:58:45 10° N
S3M 4.0 04:54:13 10° N 05:00:34 78° W 05:00:34 78° W
Cosmos 2056 Rocket 4.0 04:56:17 10° NNW 05:00:39 59° N 05:00:39 59° N
Cosmos 1833 4.5 05:07:05 65° NNE 05:07:05 65° NNE 05:11:58 10° NNE
Cosmos 2333 Rocket 3.4 05:04:38 10° N 05:09:38 32° ENE 05:09:38 32° ENE
Cosmos 2360 Rocket 2.6 05:10:03 10° NNW 05:14:45 61° N 05:14:45 61° N
Cosmos 2297 Rocket 4.4 05:37:04 13° ENE 05:37:04 13° ENE 05:38:21 10° ENE
Cosmos 2322 Rocket 3.6 05:39:17 10° NW 05:42:47 29° WNW 05:42:47 29° WNW
Cosmos 2285 Rocket 4.1 05:52:36 10° NNW 05:58:13 70° N 05:58:13 70° N
COSMOS 2428 3.3 06:01:36 10° NNW 06:06:19 54° NNE 06:06:19 54° NNE
SL-16 R/B 4.4 06:05:52 10° WNW 06:07:23 14° WNW 06:07:23 14° WNW
Cosmos 2219 Rocket 2.8 06:07:02 10° NNW 06:11:15 52° NNW 06:11:15 52° NNW
Thor Agena Rocket 4.4 06:11:46 10° N 06:15:19 45° N 06:15:19 45° N
USA 234 4.3 06:28:20 32° W 06:28:20 32° W 06:32:10 10° WNW
COSMOS 2455 3.7 06:27:35 40° WNW 06:27:48 40° NW 06:33:27 10° NNE
Cosmos 2219 4.2 06:34:37 38° ENE 06:34:37 38° ENE 06:38:46 10° NE
CZ-3B R/B 4.4 06:32:14 10° NW 06:33:35 17° NW 06:33:35 17° NW
Cosmos 1709 Rocket 4.3 06:37:29 60° ENE 06:37:29 60° ENE 06:43:20 10° NNE
NOSS 0 Rocket 4.1 06:32:31 10° NNW 06:38:37 64° ENE 06:38:37 64° ENE
Cosmos 1745 Rocket 4.2 06:45:31 64° NW 06:45:31 64° NW 06:51:09 10° N
ATLAS 5 CENTAUR R/B 2.8 06:47:50 10° NNW 06:53:35 61° NE 06:54:21 57° E
Cosmos 2333 Rocket 3.8 06:48:51 10° NW 06:51:36 25° WNW 06:51:36 25° WNW
Meteor 1-11 Rocket 4.1 06:56:39 57° ENE 06:56:39 57° ENE 07:01:22 10° NNE
Lacrosse 5 3.1 06:57:57 36° ENE 06:57:57 36° ENE 07:01:04 10° NE
SL-16 R/B 3.6 07:00:09 31° ESE 07:02:06 38° ENE 07:07:43 10° N
Cosmos 1980 3.9 06:57:13 10° NNW 07:02:27 65° NE 07:02:27 65° NE
Resurs 1-4 Rocket 3.0 06:59:00 10° NNE 07:03:26 42° E 07:03:26 42° E
Cosmos 2297 Rocket 2.5 07:18:52 61° NW 07:18:52 61° NW 07:24:04 10° NNE
Cosmos 2074 Rocket 4.4 07:23:14 49° ESE 07:24:02 52° E 07:30:03 10° NNE
NPP 4.1 07:19:01 10° NNE 07:24:07 53° E 07:24:07 53° E
Cosmos 2237 Rocket 2.3 07:21:26 10° NNW 07:26:22 67° NW 07:26:22 67° NW
ASTEX 1 3.9 07:29:44 53° NNW 07:29:44 53° NNW 07:33:31 10° N
Cosmos 2227 Rocket 2.3 07:29:32 67° NW 07:29:32 67° NW 07:34:54 10° NNE
Meteor 1-13 Rocket 4.3 07:24:51 10° NNW 07:30:08 68° NW 07:30:08 68° NW
ADEOS Rocket 3.6 07:29:11 35° ESE 07:30:54 45° ENE 07:36:06 10° N
USA 229 DEB 4.1 07:23:42 10° NW 07:30:34 53° WSW 07:30:34 53° WSW
USA 229 4.1 07:23:48 10° NW 07:30:42 54° WSW 07:30:42 54° WSW
Cosmos 1743 4.3 07:39:45 32° N 07:39:45 32° N 07:41:56 10° N
CZ-2D R/B 2.0 07:37:01 10° NNE 07:42:21 83° NW 07:42:21 83° NW
Cosmos 2181 Rocket 3.8 07:36:33 10° N 07:42:54 77° W 07:43:19 73° SW
ADEOS II 2.6 07:39:14 10° NNE 07:44:18 47° E 07:44:45 46° ESE
IRS-1D 4.5 07:43:30 10° NNE 07:48:04 36° E 07:48:42 34° ESE
Cosmos 614 Rocket 4.0 07:50:06 73° ESE 07:50:06 73° ESE 07:55:16 10° NNE
SL-16 R/B 2.8 07:45:28 10° NNW 07:51:01 54° ENE 07:53:47 28° SE
Meteor 1-23 Rocket 4.1 07:47:47 10° N 07:53:29 85° W 07:53:54 77° SSW
Cosmos 2263 Rocket 3.3 07:54:29 29° SE 07:55:46 33° ESE 08:00:47 10° NE
Cosmos 1975 3.9 07:57:17 42° E 07:57:17 42° E 08:00:51 10° NNE
ATLAS CENTAUR R/B 3.8 07:57:40 12° ESE 07:57:40 12° ESE 07:58:58 10° E
SL-19 R/B 4.5 07:54:35 10° NNE 08:00:44 80° ESE 08:02:07 57° S
Cosmos 2221 Rocket 3.8 07:56:53 10° N 08:01:25 69° E 08:01:25 69° E
CZ-4C R/B 4.5 07:54:51 10° NNW 08:01:29 35° NE 08:08:59 10° ESE
Cosmos 407 Rocket 4.3 08:01:06 39° SE 08:02:04 43° ESE 08:07:03 10° NNE
Cosmos 1461 3.6 08:05:09 50° ESE 08:05:09 50° ESE 08:09:21 10° NE
Cosmos 1992 Rocket 3.9 08:00:51 10° NNW 08:05:56 72° W 08:05:56 72° W
Cosmos 2344 3.8 08:04:50 39° S 08:07:25 56° ESE 08:14:42 10° NE
Meteor 1-29 4.3 08:08:31 10° NNE 08:10:46 38° NE 08:10:46 38° NE
UNK 4.2 08:14:59 48° WNW 08:14:59 48° WNW 08:18:51 10° NNW
Helios 1B rocket 3.0 08:11:35 10° N 08:14:58 47° NW 08:14:58 47° NW
Cosmos 1674 Rocket 4.1 08:13:17 10° N 08:17:39 56° E 08:18:39 45° SE
Cosmos 1238 Rocket 3.7 08:18:43 36° NE 08:18:43 36° NE 08:20:58 10° NNE
Meteor 2-12 Rocket 4.5 08:16:51 53° WSW 08:17:56 61° W 08:24:01 10° N
Cosmos 1842 3.4 08:18:59 10° N 08:22:21 67° N 08:22:21 67° N
Nadezhda 3 Rocket 4.0 08:16:57 10° N 08:23:21 81° E 08:26:34 31° SSE
Cosmos 2327 Rocket 4.4 08:25:50 47° SSW 08:27:45 78° W 08:33:55 10° N
BREEZE-M DEB (TANK) 3.8 08:30:28 41° NE 08:30:28 41° NE 08:32:00 10° NE
IDEFIX/ARIANE 42P 2.5 08:29:29 10° NNE 08:34:41 78° ESE 08:36:26 43° S
CBERS-1 4.0 08:29:39 10° NNE 08:34:48 81° ESE 08:36:25 45° S
Cosmos 2251 Rocket 4.3 08:36:33 34° W 08:37:25 36° WNW 08:42:17 10° N
ATLAS 5 CENTAUR R/B 3.9 08:33:15 10° WNW 08:35:47 20° W 08:35:47 20° W
Cosmos 1378 Rocket 3.4 08:34:27 10° N 08:38:49 86° E 08:39:54 51° SSE
Lacrosse 5 3.5 08:37:07 19° WNW 08:39:22 25° NNW 08:43:32 10° NNE
Cosmos 1908 Rocket 3.5 08:42:21 52° S 08:43:21 83° E 08:47:42 10° N
Resurs 1-4 Rocket 3.5 08:39:33 10° NNW 08:43:33 22° WNW 08:44:30 21° W
USA 215 3.9 08:38:27 10° ENE 08:44:40 45° SE 08:47:58 26° S
Cosmos 1356 Rocket 3.2 08:44:46 67° SW 08:45:11 76° W 08:49:13 10° N
SL-16 R/B 3.3 08:45:14 31° WSW 08:45:41 31° W 08:51:05 10° NW
Cosmos 1733 Rocket 4.2 08:50:26 28° WNW 08:50:29 28° WNW 08:54:20 10° NNW
Cosmos 2154 Rocket 4.4 08:50:40 35° WSW 08:52:41 45° WNW 08:58:36 10° N
BREEZE-M DEB (TANK) 4.3 08:45:45 22° WSW 08:53:08 64° NW 08:56:56 10° NE
SWARM C 4.4 08:53:21 72° WNW 08:53:21 72° WNW 08:56:34 10° N
SWARM A 4.1 08:53:26 70° WNW 08:53:26 70° WNW 08:56:38 10° N
Cosmos 1190 Rocket 3.9 08:51:32 38° SSW 08:53:36 86° WNW 08:58:56 10° NNE
DELTA 2 DEB (DPAF) 4.0 08:53:13 42° SSW 08:54:33 66° WSW 08:58:58 10° NNW
SL-8 R/B 4.0 08:53:11 36° W 08:54:59 61° NNW 08:59:45 10° NE
Cosmos 1140 Rocket 3.6 08:54:55 39° SW 08:56:45 64° WNW 09:01:58 10° NNE
IKONOS-2 4.5 08:54:52 25° SSE 08:57:20 83° ENE 09:01:37 10° N
Meteor 1-21 4.3 08:56:48 10° NNW 09:02:30 61° W 09:05:54 25° SSW
ASTRO E2 3.8 09:05:37 27° SSE 09:05:37 27° SSE 09:08:54 10° ESE
MSX 3.8 09:01:05 10° N 09:06:49 76° WNW 09:10:11 26° SSW
CZ-4C R/B 3.3 09:04:26 24° SSE 09:06:52 86° W 09:11:06 10° NNW
CZ-4B R/B 3.8 09:02:27 10° NNE 09:07:14 58° ESE 09:10:42 18° S
Cosmos 1954 Rocket 4.1 09:04:41 26° S 09:07:46 78° ESE 09:13:05 10° NNE
Okean 2 3.8 09:04:20 10° NNW 09:08:17 43° W 09:09:08 38° SW
Cosmos 44 4.1 09:03:54 10° NNW 09:09:01 55° NE 09:13:48 10° SE
BREEZE-M DEB (TANK) 4.4 09:06:19 10° NW 09:09:11 27° NNE 09:11:49 10° ENE
Cosmos 1844 Rocket 4.4 09:04:50 10° SSE 09:09:29 27° ESE 09:14:09 10° NE
ARIANE 5 R/B 2.6 09:06:45 10° NNE 09:11:57 80° ESE 09:15:40 20° S
Meteor 1-28 Rocket 4.4 09:16:25 25° W 09:16:25 25° W 09:19:10 10° NW
ADEOS Rocket 4.0 09:16:08 21° WSW 09:16:36 21° W 09:20:44 10° NW
Cosmos 1603 4.0 09:12:31 10° NNW 09:18:08 69° ENE 09:23:45 10° SSE
Milstar 3 3.9 09:15:44 20° SSW 09:18:39 26° SSE 09:24:08 10° ESE
CZ-2D R/B 3.6 09:15:38 10° NNE 09:19:38 67° ESE 09:22:37 18° S
CZ-2D R/B 4.3 09:20:36 10° NW 09:21:37 10° WNW 09:22:38 10° WNW
Cosmos 1959 Rocket 4.4 09:17:53 15° S 09:22:59 85° W 09:29:11 10° N
Cosmos 864 Rocket 4.5 09:17:39 15° S 09:22:59 87° W 09:29:18 10° N
ADEOS II 3.6 09:19:49 10° NNW 09:23:36 21° WNW 09:25:41 16° W
Spot 4 Rocket 4.5 09:19:08 10° NNE 09:24:14 60° ESE 09:29:19 10° S
Cosmos 1782 Rocket 3.6 09:23:31 25° SSW 09:25:52 60° W 09:30:12 10° N
CZ-2C R/B 4.2 09:22:56 10° NNE 09:26:20 33° E 09:29:46 10° SSE
Sich 1 Rocket 4.0 09:24:31 10° S 09:28:50 61° E 09:33:11 10° NNE
Cosmos 1805 3.2 09:26:33 17° S 09:29:26 83° E 09:33:21 10° N
SL-8 Rocket 4.1 09:24:57 19° SSW 09:29:28 60° W 09:35:35 10° N
Cosmos 2366 rocket 4.0 09:26:46 14° SSW 09:32:14 72° W 09:38:36 10° N
IRS-1C 4.4 09:27:34 10° N 09:32:44 52° WNW 09:36:26 19° SW
SL-16 R/B 3.5 09:30:46 10° WNW 09:34:37 19° W 09:35:34 18° WSW
CZ-3 R/B 4.4 09:15:06 17° SW 09:34:50 35° S 09:44:06 10° ESE
ATLAS CENTAUR R/B 1.8 09:33:49 24° WSW 09:35:38 42° NW 09:39:23 10° NNE
Cosmos 676 Rocket 4.2 09:32:40 20° SW 09:36:18 59° WNW 09:41:35 10° N
KORONAS-FOTON 3.8 09:32:54 10° NNW 09:36:48 65° W 09:40:39 10° S
Cosmos 2263 Rocket 3.2 09:36:11 18° WSW 09:39:37 33° WNW 09:44:44 10° N
Cosmos 1726 4.5 09:40:54 10° SE 09:43:48 23° E 09:46:42 10° NE
Cosmos 1707 4.1 09:41:17 10° NW 09:44:07 20° W 09:45:07 18° WSW
SL-14 R/B 4.3 09:41:17 10° N 09:45:04 48° E 09:48:51 10° SSE
PAYLOAD A 4.1 09:40:03 10° NNE 09:45:30 86° WNW 09:50:49 10° SSW
ALOS 2.7 09:45:31 10° NNE 09:50:09 61° E 09:54:45 10° S
CZ-4C R/B 3.1 09:42:59 10° NW 09:50:31 62° WSW 09:58:57 10° SSE
GEOS 3 Rocket 3.6 09:45:10 10° SSE 09:50:31 80° SW 09:55:53 10° NW
Cosmos 1741 Rocket 4.2 09:50:29 10° S 09:55:41 73° ESE 10:00:58 10° NNE
Cosmos 1733 3.4 09:52:52 12° SSW 09:56:14 51° W 10:00:00 10° N
SL-08 R/B 3.7 09:53:26 10° S 09:58:10 47° W 10:02:58 10° NNW
Cosmos 1766 3.2 09:54:36 10° SSW 09:58:26 66° W 10:02:19 10° N
Meteor 2-20 Rocket 4.4 09:52:33 10° NNW 09:58:41 71° W 10:04:47 10° S
Cosmos 1470 4.3 09:55:58 10° SSE 09:59:36 37° E 10:03:13 10° NNE
Cosmos 1763 Rocket 3.8 09:55:52 10° NNW 10:01:12 74° ENE 10:06:28 10° SSE
USA 281 4.0 09:56:01 10° SE 10:02:24 59° ENE 10:08:50 10° NNW
Cosmos 1300 Rocket 3.8 10:02:07 10° SSW 10:06:17 49° W 10:10:32 10° N
Cosmos 1727 Rocket 4.0 10:00:42 10° NNW 10:06:54 70° W 10:13:07 10° S
Meteor 1-15 Rocket 4.5 10:01:50 10° SSW 10:07:40 61° W 10:13:30 10° N
USA 290 2.3 10:06:45 10° NNW 10:09:59 84° ENE 10:13:13 10° SSE
Cosmos 1975 Rocket 4.0 10:09:46 10° NNW 10:13:34 29° W 10:17:19 10° SSW
Cosmos 1484 Rocket 3.2 10:09:57 10° NNE 10:13:53 70° E 10:17:51 10° S
Cosmos 1943 3.7 10:09:12 10° NW 10:14:29 39° WSW 10:19:42 10° S
Cosmos 1844 3.8 10:09:18 10° SSW 10:14:49 82° ESE 10:20:25 10° NNE
Cosmos 1340 4.0 10:13:09 10° NW 10:16:00 21° W 10:18:51 10° SW
CZ-2C R/B 2.8 10:13:19 10° N 10:17:36 41° WNW 10:21:55 10° SW
SL-24 R/B - RUBIN 2 3.6 10:14:35 10° NW 10:19:23 65° WSW 10:23:44 10° SSE
Cosmos 1400 Rocket 4.0 10:16:26 10° SW 10:19:35 24° WNW 10:22:46 10° NNW
Cosmos 1626 3.0 10:16:48 10° NNW 10:20:03 30° W 10:23:17 10° SSW
CZ-3B R/B 4.0 10:12:45 10° WSW 10:20:34 27° S 10:24:51 10° SE
USA 215 3.8 10:21:24 10° NE 10:27:40 50° NW 10:33:54 10° WSW
